CW1411 Weather Reports


Display with metric or nautical units.
time (UTC)temp
F
wind
direction
speed
MPH
gust
MPH
rain 1hr
in
rain 24hr
in
rain mn
in
humidity
%
barometer
mb
20170325133010 0 0.0 0.0 0.00 0.15 0.09 1023.0
20170325132452 0 0.0 0.0 0.00 0.15 0.09 1023.2
20170325131914 0 0.0 0.0 0.00 0.15 0.09 1023.2
20170325131411 0 0.0 0.0 0.00 0.15 0.09 1022.9
20170325130906 0 0.0 0.0 0.00 0.15 0.09 1022.5
20170325130323 0 0.0 0.0 0.00 0.15 0.09 1022.5
20170325125816 0 0.0 0.0 0.00 0.15 0.09 1022.5
20170325125316 0 0.0 0.0 0.00 0.15 0.09 1022.4
20170325124815 0 0.0 0.0 0.00 0.15 0.09 1022.1
20170325124310 0 0.0 0.0 0.00 0.15 0.09 1021.9
20170325123717 0 0.0 0.0 0.00 0.15 0.09 1021.8
20170325123214 0 0.0 0.0 0.00 0.15 0.09 1022.2
20170325122706 0 0.0 0.0 0.00 0.15 0.09 1022.5
20170325122115 0 0.0 0.0 0.00 0.15 0.09 1022.4
20170325121607 0 0.0 0.0 0.00 0.15 0.09 1022.2
20170325121017 0 0.0 0.0 0.00 0.15 0.09 1022.3
20170325120515 0 0.0 0.0 0.00 0.15 0.09 1022.3
20170325120017 0 0.0 0.0 0.00 0.15 0.09 1022.2
20170325115514 0 0.0 0.0 0.00 0.15 0.09 1022.0
20170325115015 0 0.0 0.0 0.00 0.15 0.09 1021.9
20170325114510 0 0.0 0.0 0.00 0.15 0.09 1022.0
20170325113919 0 0.0 0.0 0.00 0.15 0.09 1022.0
20170325113417 36 10 0.0 0.0 0.00 0.15 0.09 92 1021.9
20170325112917 36 10 0.0 0.0 0.00 0.15 0.09 92 1021.6
20170325112416 36 10 0.0 1.0 0.00 0.15 0.09 92 1021.7
20170325111908 36 10 0.0 1.0 0.00 0.15 0.09 92 1021.7
20170325111409 36 10 0.0 2.0 0.00 0.15 0.09 92 1021.7
20170325110909 36 10 0.0 3.0 0.00 0.15 0.09 92 1021.9
20170325110318 36 10 0.0 3.0 0.00 0.15 0.09 92 1021.8
20170325105818 36 24 0.0 0.0 0.00 0.15 0.09 92 1021.7
20170325105316 36 25 0.0 0.0 0.00 0.15 0.09 92 1021.4
20170325104820 36 25 0.0 3.0 0.00 0.15 0.09 92 1021.3
20170325104318 36 25 0.0 3.0 0.00 0.15 0.09 92 1021.2
20170325103806 36 9 0.0 3.0 0.00 0.15 0.09 92 1021.0
20170325103304 36 22 1.0 3.0 0.00 0.15 0.09 92 1021.1
20170325102734 36 24 1.0 3.0 0.00 0.15 0.09 92 1021.1
20170325102226 37 11 0.0 3.0 0.00 0.15 0.09 92 1020.9
20170325101726 37 10 0.0 1.0 0.00 0.15 0.09 92 1020.9
20170325101220 37 11 0.0 1.0 0.00 0.15 0.09 92 1020.6
20170325100718 37 11 0.0 0.0 0.00 0.15 0.09 92 1020.5
20170325100157 37 11 0.0 2.0 0.00 0.15 0.09 92 1020.3
20170325095638 37 11 0.0 2.0 0.00 0.15 0.09 92 1020.7
20170325095134 37 11 0.0 2.0 0.00 0.15 0.09 92 1020.7
20170325094634 37 11 1.0 4.0 0.02 0.15 0.09 92 1020.7
20170325094135 37 11 0.0 4.0 0.02 0.15 0.09 92 1020.8
20170325093621 37 11 0.0 5.0 0.03 0.15 0.09 92 1020.7
20170325093114 37 11 1.0 5.0 0.04 0.15 0.09 92 1020.6
20170325092552 37 11 1.0 4.0 0.04 0.15 0.09 92 1020.4
20170325092040 37 11 1.0 4.0 0.04 0.15 0.09 92 1020.3
20170325091538 37 11 0.0 3.0 0.05 0.15 0.09 91 1020.3
20170325091032 37 13 0.0 0.0 0.06 0.15 0.09 91 1019.8
20170325090517 37 13 0.0 0.0 0.06 0.15 0.09 91 1019.5
20170325090017 37 13 0.0 0.0 0.06 0.15 0.09 91 1019.6
20170325085515 37 13 0.0 0.0 0.06 0.15 0.09 91 1019.3
20170325085016 37 13 0.0 0.0 0.05 0.14 0.09 91 1019.5
20170325084516 37 13 0.0 0.0 0.05 0.13 0.07 91 1019.7
20170325084014 37 13 0.0 0.0 0.05 0.12 0.07 91 1019.5
20170325083514 37 15 0.0 0.0 0.05 0.12 0.06 91 1019.6
20170325083015 36 15 0.0 0.0 0.04 0.11 0.05 91 1018.8
20170325082514 36 15 0.0 0.0 0.04 0.11 0.05 91 1018.4
20170325082013 36 15 0.0 0.0 0.04 0.11 0.05 91 1019.0
20170325081512 36 14 0.0 0.0 0.03 0.10 0.04 91 1018.8
20170325081013 36 15 0.0 0.0 0.03 0.09 0.03 91 1018.8
20170325080510 36 15 0.0 0.0 0.03 0.09 0.03 91 1018.5
20170325080000 36 15 0.0 0.0 0.03 0.09 0.03 91 1018.2
20170325075454 36 16 1.0 3.0 0.03 0.09 0.03 90 1018.3
20170325074947 36 17 1.0 3.0 0.02 0.08 0.03 90 1018.3
20170325074426 37 20 0.0 2.0 0.02 0.08 0.02 90 1018.1
20170325073928 37 22 0.0 2.0 0.01 0.07 0.01 90 1018.0
20170325073428 37 22 0.0 2.0 0.01 0.07 0.01 90 1017.7
20170325072919 37 23 1.0 2.0 0.01 0.07 0.01 90 1017.9
20170325072418 37 21 0.0 2.0 0.01 0.07 0.01 90 1017.9
20170325071916 37 25 0.0 4.0 0.01 0.07 0.01 90 1017.4
20170325071416 37 9 1.0 4.0 0.01 0.07 0.01 90 1018.0
20170325070918 37 5 0.0 1.0 0.00 0.06 0.00 89 1018.5
20170325070418 37 5 0.0 0.0 0.00 0.06 0.00 89 1018.4
20170325065906 37 5 0.0 0.0 0.00 0.06 0.00 89 1018.5
20170325065352 37 5 0.0 0.0 0.00 0.06 0.00 89 1018.7
20170325064816 37 5 0.0 0.0 0.00 0.06 0.00 89 1018.7
20170325064314 37 5 0.0 0.0 0.00 0.06 0.00 89 1018.9
20170325063756 37 5 0.0 0.0 0.00 0.06 0.00 89 1018.9
20170325063228 37 5 0.0 0.0 0.00 0.06 0.00 89 1018.6
20170325062728 37 5 0.0 1.0 0.00 0.06 0.00 89 1018.9
20170325062212 37 5 0.0 1.0 0.00 0.06 0.00 89 1018.6
20170325061713 37 5 0.0 2.0 0.00 0.06 0.00 89 1018.7
20170325061147 37 5 0.0 2.0 0.00 0.06 0.00 89 1019.0
20170325060648 37 5 0.0 0.0 0.00 0.06 0.00 89 1018.4
20170325060125 37 5 0.0 2.0 0.00 0.06 0.00 89 1018.5
20170325055614 37 5 0.0 2.0 0.00 0.06 0.00 88 1018.4
20170325055114 37 5 0.0 1.0 0.00 0.06 0.00 88 1018.6
20170325054613 37 5 0.0 2.0 0.00 0.06 0.00 88 1018.8
20170325054113 37 5 0.0 2.0 0.00 0.06 0.00 88 1018.8
20170325053610 37 5 0.0 2.0 0.00 0.06 0.00 88 1018.4
20170325053110 37 5 0.0 1.0 0.00 0.06 0.00 88 1018.6
20170325052534 37 5 0.0 2.0 0.00 0.06 0.00 88 1018.2
20170325052018 37 5 0.0 2.0 0.00 0.06 0.00 88 1018.5
20170325051516 37 5 0.0 2.0 0.00 0.06 0.00 88 1018.5
20170325051017 37 5 0.0 1.0 0.00 0.06 0.00 88 1018.4
20170325050512 37 5 0.0 3.0 0.00 0.06 0.00 87 1018.4
20170325050013 37 5 1.0 3.0 0.00 0.06 0.00 87 1018.4
20170325045514 37 5 0.0 2.0 0.00 0.06 0.00 87 1018.7
20170325045002 37 5 0.0 0.0 0.00 0.06 0.00 87 1018.6
20170325044454 37 5 0.0 0.0 0.00 0.06 0.00 87 1018.3
20170325043934 37 5 0.0 2.0 0.00 0.06 0.00 87 1018.6
20170325043430 37 5 0.0 2.0 0.00 0.06 0.00 87 1018.7
20170325042918 37 5 0.0 0.0 0.00 0.06 0.00 87 1018.5
20170325042418 37 5 0.0 0.0 0.00 0.06 0.00 87 1018.4
20170325041914 37 5 0.0 1.0 0.00 0.06 0.00 86 1018.1
20170325041356 37 5 0.0 1.0 0.00 0.06 0.00 86 1018.2
20170325040855 37 5 0.0 0.0 0.00 0.06 0.00 86 1018.4
20170325040337 37 5 0.0 0.0 0.00 0.06 0.00 86 1018.6
20170325035818 37 5 0.0 0.0 0.00 0.06 0.06 86 1018.6
20170325035313 37 5 0.0 0.0 0.00 0.06 0.06 86 1018.6
20170325034812 37 5 0.0 0.0 0.00 0.06 0.06 85 1018.5
20170325034253 37 5 0.0 0.0 0.00 0.06 0.06 85 1018.4
20170325033749 37 5 0.0 1.0 0.00 0.06 0.06 85 1018.4
20170325033231 37 5 0.0 1.0 0.00 0.06 0.06 85 1018.3
20170325032719 38 5 0.0 1.0 0.00 0.06 0.06 85 1018.1
20170325032216 38 5 0.0 1.0 0.00 0.06 0.06 85 1017.9
20170325031710 38 5 0.0 0.0 0.00 0.06 0.06 84 1018.1
20170325031159 38 5 0.0 0.0 0.00 0.06 0.06 84 1018.4
20170325030641 38 5 0.0 0.0 0.00 0.06 0.06 84 1018.3
20170325030115 38 5 0.0 1.0 0.00 0.06 0.06 84 1018.4
20170325025617 38 5 0.0 1.0 0.00 0.06 0.06 84 1018.4
20170325025115 38 5 0.0 1.0 0.00 0.06 0.06 84 1018.2
20170325024613 38 5 0.0 1.0 0.00 0.06 0.06 83 1018.1
20170325024113 38 5 0.0 0.0 0.00 0.06 0.06 83 1018.2
20170325023611 38 5 0.0 0.0 0.00 0.06 0.06 83 1018.0
20170325023028 38 5 0.0 0.0 0.00 0.06 0.06 83 1018.2
20170325022526 39 5 0.0 0.0 0.00 0.06 0.06 83 1018.3
20170325022018 39 5 0.0 0.0 0.00 0.06 0.06 83 1018.5
20170325021512 39 5 0.0 0.0 0.00 0.06 0.06 83 1018.1
20170325021009 39 5 0.0 0.0 0.00 0.06 0.06 83 1018.3
20170325020507 39 5 0.0 1.0 0.00 0.06 0.06 83 1018.2
20170325020009 39 5 0.0 1.0 0.00 0.06 0.06 82 1018.0
20170325015500 39 5 0.0 0.0 0.00 0.06 0.06 82 1017.9
20170325014955 39 5 0.0 0.0 0.00 0.06 0.06 82 1017.7
20170325014437 39 5 0.0 0.0 0.00 0.06 0.06 81 1017.9
20170325013920 39 5 0.0 0.0 0.00 0.06 0.06 81 1018.1
20170325013418 40 5 0.0 0.0 0.00 0.06 0.06 82 1018.0
20170325012918 40 5 0.0 0.0 0.00 0.06 0.06 82 1018.1
20170325012417 40 5 0.0 0.0 0.00 0.06 0.06 82 1018.0
20170325011919 40 5 0.0 0.0 0.00 0.06 0.06 82 1018.0
20170325011415 40 5 0.0 0.0 0.00 0.06 0.06 82 1018.0
20170325010907 40 5 0.0 0.0 0.00 0.06 0.06 82 1018.0
20170325010352 40 5 0.0 0.0 0.00 0.06 0.06 82 1017.7
20170325005851 40 5 0.0 0.0 0.00 0.06 0.06 82 1017.9
20170325005347 40 5 0.0 0.0 0.00 0.06 0.06 82 1017.6
20170325004819 40 5 0.0 0.0 0.00 0.06 0.06 82 1017.6
20170325004314 40 5 0.0 1.0 0.00 0.06 0.06 82 1017.3
20170325003815 40 5 0.0 2.0 0.00 0.06 0.06 82 1017.2
20170325003315 40 5 0.0 4.0 0.00 0.06 0.06 82 1017.0
20170325002814 40 5 0.0 4.0 0.00 0.06 0.06 82 1017.1
20170325002314 40 5 0.0 1.0 0.00 0.06 0.06 82 1017.0
20170325001815 40 5 0.0 1.0 0.00 0.06 0.06 82 1016.9
20170325001242 40 5 0.0 0.0 0.00 0.06 0.06 82 1017.1
20170325000741 40 5 0.0 0.0 0.00 0.06 0.06 82 1016.9
20170325000239 40 5 0.0 2.0 0.00 0.06 0.06 81 1016.9
20170324235727 40 5 0.0 4.0 0.00 0.06 0.06 81 1016.8
20170324235217 40 5 0.0 4.0 0.00 0.06 0.06 81 1016.6
20170324234719 40 5 0.0 3.0 0.00 0.06 0.06 81 1016.8
20170324234212 40 5 0.0 3.0 0.00 0.06 0.06 81 1016.6
20170324233708 40 5 0.0 4.0 0.00 0.06 0.06 81 1016.4
20170324233206 40 5 0.0 7.0 0.00 0.06 0.06 81 1016.4
20170324232659 40 5 1.0 7.0 0.00 0.06 0.06 80 1016.4
20170324232158 40 5 0.0 5.0 0.00 0.06 0.06 80 1016.4
20170324231649 40 5 0.0 7.0 0.00 0.06 0.06 80 1016.5
20170324231139 40 5 0.0 7.0 0.00 0.06 0.06 80 1016.6
20170324230618 40 5 0.0 3.0 0.00 0.06 0.06 80 1016.6
20170324230118 40 5 0.0 3.0 0.00 0.06 0.06 80 1016.6
20170324225615 40 5 0.0 3.0 0.00 0.06 0.06 79 1016.6
20170324225117 40 9 0.0 4.0 0.00 0.06 0.06 79 1016.6
20170324224615 40 5 1.0 4.0 0.00 0.06 0.06 79 1016.6
20170324224112 40 5 2.0 9.0 0.00 0.06 0.06 79 1016.4
20170324223609 40 5 1.0 9.0 0.00 0.06 0.06 79 1016.4
20170324223108 40 5 2.0 6.0 0.00 0.06 0.06 79 1016.4
20170324222604 40 5 2.0 12.0 0.00 0.06 0.06 79 1016.4
20170324222103 40 5 1.0 12.0 0.00 0.06 0.06 79 1016.5
20170324221604 40 5 1.0 5.0 0.00 0.06 0.06 79 1016.7
20170324221052 40 5 2.0 10.0 0.00 0.06 0.06 78 1016.7
20170324220546 40 5 1.0 10.0 0.00 0.06 0.06 78 1016.7
20170324220037 40 5 1.0 6.0 0.00 0.06 0.06 78 1016.7
20170324215534 40 5 1.0 4.0 0.00 0.06 0.06 78 1016.8
20170324215029 40 5 1.0 7.0 0.00 0.06 0.06 78 1016.8
20170324214531 40 9 1.0 7.0 0.00 0.06 0.06 77 1016.8
20170324214021 40 5 2.0 10.0 0.00 0.06 0.06 77 1016.6
20170324213521 40 5 1.0 10.0 0.00 0.06 0.06 77 1016.7
20170324213022 40 5 1.0 6.0 0.00 0.06 0.06 77 1016.7
20170324212522 40 9 1.0 6.0 0.00 0.06 0.06 77 1016.7
20170324212022 40 5 3.0 15.0 0.00 0.06 0.06 76 1016.7
20170324211519 40 5 2.0 15.0 0.00 0.06 0.06 76 1016.7
20170324211017 40 9 1.0 7.0 0.00 0.06 0.06 77 1016.8
20170324210519 40 5 1.0 7.0 0.01 0.06 0.06 76 1016.6
20170324210017 40 9 2.0 10.0 0.01 0.06 0.06 76 1017.1
20170324205515 40 5 3.0 12.0 0.01 0.06 0.06 76 1017.3
20170324205013 40 5 2.0 12.0 0.01 0.06 0.06 76 1017.4
20170324204515 40 5 1.0 6.0 0.01 0.06 0.06 77 1017.4
20170324204013 40 5 2.0 9.0 0.01 0.06 0.06 77 1017.5
20170324203514 40 5 2.0 9.0 0.01 0.06 0.06 77 1017.6
20170324203012 40 5 1.0 9.0 0.01 0.06 0.06 78 1017.7
20170324202513 40 5 1.0 9.0 0.01 0.06 0.06 78 1017.7
20170324202013 39 5 1.0 4.0 0.01 0.06 0.06 78 1018.0
20170324201514 39 5 2.0 9.0 0.01 0.06 0.06 78 1018.2
20170324201010 39 9 2.0 9.0 0.01 0.06 0.06 78 1018.2
20170324200510 39 5 2.0 9.0 0.01 0.05 0.05 78 1018.2
20170324200008 39 9 2.0 6.0 0.01 0.05 0.05 78 1018.3
20170324195509 39 5 1.0 7.0 0.01 0.05 0.05 77 1018.5
20170324195011 39 5 3.0 9.0 0.01 0.05 0.05 77 1018.6
20170324194511 39 5 2.0 9.0 0.02 0.05 0.05 77 1018.8
20170324194008 39 5 1.0 7.0 0.02 0.05 0.05 77 1019.0
20170324193509 39 5 1.0 5.0 0.02 0.05 0.05 77 1019.1
20170324193006 39 5 1.0 10.0 0.02 0.05 0.05 77 1019.2
20170324192507 39 5 2.0 10.0 0.02 0.05 0.05 76 1019.1
20170324192002 39 5 2.0 9.0 0.02 0.05 0.05 76 1019.1
20170324191501 39 5 3.0 12.0 0.03 0.05 0.05 76 1019.0
20170324191002 39 5 3.0 12.0 0.03 0.05 0.05 76 1019.1
20170324190459 39 5 2.0 10.0 0.02 0.04 0.04 75 1018.9
20170324185958 39 5 1.0 7.0 0.02 0.04 0.04 76 1019.1
20170324185457 38 9 2.0 12.0 0.02 0.04 0.04 75 1019.0
20170324184952 38 5 2.0 12.0 0.02 0.04 0.04 75 1019.1
20170324184451 38 9 2.0 11.0 0.01 0.03 0.03 75 1019.2
20170324183948 38 5 1.0 9.0 0.01 0.03 0.03 75 1019.3
20170324183444 38 5 2.0 10.0 0.01 0.03 0.03 74 1019.6
20170324182934 38 5 2.0 10.0 0.01 0.03 0.03 74 1019.8
20170324182436 38 5 1.0 7.0 0.02 0.03 0.03 74 1019.8
20170324181936 38 5 1.0 7.0 0.02 0.03 0.03 73 1020.2
20170324181437 37 5 2.0 10.0 0.01 0.02 0.02 73 1020.2
20170324180931 37 9 3.0 11.0 0.01 0.02 0.02 73 1020.2
20170324180432 37 5 2.0 11.0 0.01 0.02 0.02 73 1020.2
20170324175930 37 5 2.0 10.0 0.01 0.02 0.02 72 1020.2
20170324175430 37 9 2.0 10.0 0.01 0.02 0.02 72 1020.4
20170324174928 37 5 2.0 8.0 0.01 0.02 0.02 76 1020.2
20170324174428 36 5 1.0 8.0 0.01 0.02 0.02 72 1020.5
20170324173928 36 9 1.0 9.0 0.01 0.02 0.02 72 1020.6
20170324173428 36 5 2.0 9.0 0.01 0.02 0.02 72 1020.7
20170324172930 36 5 2.0 9.0 0.01 0.02 0.02 72 1020.9
20170324172428 35 5 2.0 8.0 0.00 0.01 0.01 73 1021.0
20170324171929 35 9 1.0 6.0 0.00 0.01 0.01 74 1021.2
20170324171429 35 9 1.0 7.0 0.00 0.01 0.01 74 1021.4
20170324170931 35 5 2.0 7.0 0.01 0.01 0.01 75 1021.6
20170324170427 35 5 1.0 7.0 0.01 0.01 0.01 76 1021.6
20170324165926 34 5 1.0 6.0 0.01 0.01 0.01 77 1021.8
20170324165429 34 9 0.0 6.0 0.01 0.01 0.01 77 1021.9
20170324164922 34 5 1.0 7.0 0.01 0.01 0.01 78 1022.1
20170324164424 34 5 1.0 7.0 0.01 0.01 0.01 79 1022.3
20170324163924 33 5 0.0 5.0 0.01 0.01 0.01 81 1022.5
20170324163424 33 5 1.0 7.0 0.01 0.01 0.01 81 1022.5
20170324162924 33 5 1.0 7.0 0.01 0.01 0.01 82 1022.7
20170324162424 33 9 2.0 7.0 0.01 0.01 0.01 83 1022.9
20170324161918 33 5 1.0 5.0 0.01 0.01 0.01 84 1022.9
20170324161421 33 9 0.0 4.0 0.00 0.00 0.00 84 1023.2
20170324161417 33 9 0.0 4.0 0.01 0.01 0.01 84 1023.0
20170324160418 32 5 0.0 2.0 0.00 0.00 0.00 84 1023.2
20170324155921 32 5 0.0 4.0 0.00 0.00 0.00 85 1023.5
20170324155416 32 5 1.0 6.0 0.00 0.00 0.00 84 1023.5
20170324154918 32 5 1.0 6.0 0.00 0.00 0.00 85 1023.7
20170324154416 32 5 0.0 6.0 0.00 0.00 0.00 85 1023.6
20170324153918 32 5 1.0 6.0 0.00 0.00 0.00 84 1023.5
20170324153418 32 5 1.0 5.0 0.00 0.00 0.00 84 1023.6
20170324152914 31 5 1.0 6.0 0.00 0.00 0.00 83 1024.1
20170324152416 31 5 2.0 11.0 0.00 0.00 0.00 82 1024.3
20170324151916 31 5 2.0 11.0 0.00 0.00 0.00 81 1024.4
20170324151412 32 5 1.0 9.0 0.00 0.00 0.00 80 1024.5
20170324150910 32 5 2.0 10.0 0.00 0.00 0.00 78 1024.8
20170324150407 32 5 2.0 10.0 0.00 0.00 0.00 75 1024.9
20170324145906 33 5 2.0 7.0 0.00 0.00 0.00 72 1025.1
20170324145408 33 5 2.0 13.0 0.00 0.00 0.00 69 1025.2
20170324144906 34 5 4.0 14.0 0.00 0.00 0.00 65 1025.2
20170324144405 35 5 5.0 14.0 0.00 0.00 0.00 61 1025.4
20170324143906 36 9 3.0 13.0 0.00 0.00 0.00 54 1025.6
20170324143406 36 5 2.0 13.0 0.00 0.00 0.00 48 1025.5
20170324142905 36 9 1.0 16.0 0.00 0.00 0.00 48 1025.4
20170324142401 36 5 2.0 16.0 0.00 0.00 0.00 48 1025.3
20170324141901 36 9 3.0 11.0 0.00 0.00 0.00 47 1025.3
20170324141401 36 5 3.0 13.0 0.00 0.00 0.00 47 1025.5
20170324140853 36 5 2.0 13.0 0.00 0.00 0.00 48 1025.6
20170324140354 36 5 2.0 9.0 0.00 0.00 0.00 47 1025.7
20170324135853 36 5 2.0 9.0 0.00 0.00 0.00 46 1026.1
20170324135352 36 5 3.0 10.0 0.00 0.00 0.00 47 1026.1
20170324134853 36 5 3.0 13.0 0.00 0.00 0.00 46 1026.1
20170324134346 36 5 2.0 13.0 0.00 0.00 0.00 48 1026.1
20170324133848 36 9 3.0 11.0 0.00 0.00 0.00 46 1026.1